FW2888 Weather Reports


time (UTC)temp
F
wind
direction
speed
knots
gust
knots
rain 1hr
in
rain 24hr
in
rain mn
in
humidity
%
barometer
mb
20260508024900 48 248 0.0 0.0 0.00 0.05 0.05 88 1004.5
20260508024400 49 248 0.0 0.0 0.00 0.05 0.05 88 1004.5
20260508023900 49 248 0.0 0.0 0.00 0.05 0.05 88 1004.5
20260508023400 49 248 0.0 0.0 0.00 0.05 0.05 87 1004.5
20260508022900 49 248 0.0 0.0 0.00 0.05 0.05 87 1004.6
20260508022401 49 248 0.0 0.0 0.00 0.05 0.05 87 1004.6
20260508021900 49 248 0.0 0.0 0.00 0.05 0.05 87 1004.4
20260508021401 49 248 0.0 0.0 0.00 0.05 0.05 87 1004.4
20260508020902 49 248 0.0 0.0 0.00 0.05 0.05 86 1004.4
20260508020401 50 248 0.0 0.0 0.00 0.05 0.05 86 1004.4
20260508015901 50 248 0.0 0.0 0.00 0.05 0.05 86 1004.3
20260508015401 50 248 0.0 0.0 0.00 0.05 0.05 86 1004.3
20260508014857 50 248 0.0 0.0 0.00 0.05 0.05 86 1004.3
20260508014357 50 248 0.0 0.0 0.00 0.05 0.05 86 1004.3
20260508013856 50 248 0.0 0.0 0.00 0.05 0.05 86 1004.2
20260508013356 50 248 0.0 0.0 0.00 0.05 0.05 85 1004.1
20260508012856 50 248 0.0 0.0 0.00 0.05 0.05 85 1004.0
20260508012357 50 248 0.0 0.0 0.00 0.05 0.05 84 1003.9
20260508011356 51 248 0.0 0.0 0.00 0.05 0.05 83 1003.9
20260508010857 51 248 0.0 0.9 0.00 0.05 0.05 83 1003.9
20260508010357 51 248 0.0 0.9 0.00 0.05 0.05 82 1003.8
20260508005856 52 248 0.0 0.9 0.00 0.05 0.05 80 1003.7
20260508005357 53 248 0.0 0.0 0.00 0.05 0.05 79 1003.6
20260508004857 53 248 0.0 0.0 0.00 0.05 0.05 79 1003.5
20260508004354 53 248 0.0 1.7 0.00 0.05 0.05 79 1003.4
20260508003854 53 248 0.0 1.7 0.00 0.05 0.05 79 1003.3
20260508003355 53 257 0.0 0.9 0.00 0.05 0.05 79 1003.2
20260508002351 54 257 0.0 1.7 0.00 0.05 0.05 78 1003.2
20260508001851 54 194 0.0 0.0 0.00 0.05 0.05 78 1003.2
20260508001350 54 194 0.0 0.0 0.00 0.05 0.05 78 1003.2
20260508000349 54 253 0.0 0.9 0.00 0.05 0.05 77 1003.1
20260507235849 55 253 0.0 0.9 0.00 0.05 0.05 76 1003.1
20260507234850 55 255 0.0 2.6 0.00 0.05 0.05 76 1003.0
20260507234346 56 239 0.0 1.7 0.00 0.05 0.05 75 1002.9
20260507233844 56 254 0.0 2.6 0.00 0.05 0.05 75 1002.9
20260507233345 56 320 0.0 2.6 0.00 0.05 0.05 74 1002.7
20260507232842 56 251 0.0 2.6 0.00 0.05 0.05 74 1002.7
20260507232341 57 241 0.0 2.6 0.00 0.05 0.05 73 1002.7
20260507231843 57 327 0.0 2.6 0.00 0.05 0.05 73 1002.5
20260507231338 57 347 0.0 2.6 0.00 0.05 0.05 73 1002.4
20260507230837 57 209 0.0 2.6 0.00 0.05 0.05 74 1002.4
20260507230335 57 173 0.9 3.5 0.00 0.05 0.05 72 1002.5
20260507225834 58 282 0.9 3.5 0.00 0.05 0.05 72 1002.4
20260507225333 58 209 0.0 4.3 0.00 0.05 0.05 72 1002.4
20260507224835 58 258 0.9 4.3 0.00 0.05 0.05 73 1002.3
20260507224330 58 201 0.9 6.1 0.00 0.05 0.05 75 1002.3
20260507223831 58 92 0.9 4.3 0.00 0.05 0.05 75 1002.2
20260507223329 58 280 0.9 6.1 0.00 0.05 0.05 74 1002.3
20260507222825 58 197 0.9 6.1 0.00 0.05 0.05 74 1002.3
20260507222323 58 107 0.0 2.6 0.00 0.05 0.05 73 1002.4
20260507221821 58 207 0.0 2.6 0.00 0.05 0.05 73 1002.3
20260507221322 58 204 0.9 2.6 0.00 0.05 0.05 73 1002.3
20260507220821 58 135 0.9 5.2 0.00 0.05 0.05 72 1002.2
20260507220317 58 184 1.7 6.1 0.00 0.05 0.05 70 1002.0
20260507215814 58 110 1.7 6.1 0.00 0.05 0.05 68 1002.1
20260507215311 58 71 0.9 5.2 0.00 0.05 0.05 69 1002.0
20260507214810 58 58 0.9 5.2 0.00 0.05 0.05 67 1002.1
20260507213806 58 86 0.9 2.6 0.00 0.05 0.05 66 1002.1
20260507213302 58 295 0.9 5.2 0.00 0.05 0.05 66 1002.2
20260507212803 58 285 0.9 5.2 0.00 0.05 0.05 64 1002.1
20260507212307 58 153 0.9 4.3 0.00 0.05 0.05 63 1002.2
20260507211802 58 173 0.9 3.5 0.00 0.05 0.05 66 1002.3
20260507211302 58 118 1.7 5.2 0.00 0.05 0.05 66 1002.3
20260507210802 58 39 1.7 6.1 0.00 0.05 0.05 67 1002.1
20260507210301 59 164 0.9 6.1 0.00 0.05 0.05 69 1002.3
20260507205800 58 118 0.9 5.2 0.00 0.05 0.05 71 1002.3
20260507205301 58 179 1.7 5.2 0.00 0.05 0.05 71 1002.3
20260507204301 58 161 0.9 5.2 0.00 0.05 0.05 71 1002.4
20260507203802 58 256 0.9 7.0 0.00 0.05 0.05 71 1002.2
20260507203301 59 149 1.7 7.0 0.00 0.05 0.05 71 1002.4
20260507202801 59 100 1.7 6.1 0.00 0.05 0.05 73 1002.3
20260507202300 58 235 1.7 6.1 0.00 0.05 0.05 71 1002.4
20260507201802 58 80 1.7 7.0 0.00 0.05 0.05 70 1002.4
20260507201259 58 259 1.7 7.0 0.00 0.05 0.05 71 1002.5
20260507200800 56 162 0.9 7.8 0.00 0.05 0.05 71 1002.4
20260507195800 56 128 0.9 5.2 0.00 0.05 0.05 71 1002.4
20260507194254 57 117 0.9 3.5 0.00 0.05 0.05 70 1002.8
20260507193754 57 110 0.9 3.5 0.00 0.05 0.05 66 1003.0
20260507192757 57 68 1.7 5.2 0.01 0.05 0.05 65 1002.7
20260507192255 57 135 0.9 3.5 0.01 0.05 0.05 70 1002.5
20260507191755 57 196 0.9 3.5 0.01 0.05 0.05 68 1002.6
20260507190255 58 149 0.9 3.5 0.01 0.05 0.05 67 1003.1
20260507185256 57 16 0.0 1.7 0.01 0.05 0.05 77 1003.3
20260507184755 55 181 0.0 1.7 0.01 0.05 0.05 76 1003.3
20260507184254 54 81 0.0 1.7 0.01 0.05 0.05 78 1003.4
20260507183756 54 81 0.0 1.7 0.01 0.05 0.05 77 1003.3
20260507183256 55 174 0.0 1.7 0.00 0.05 0.04 73 1003.8
20260507182255 56 174 0.0 0.9 0.00 0.05 0.04 64 1003.9
20260507181755 56 196 0.0 3.5 0.00 0.05 0.04 62 1003.9
20260507181254 57 195 0.0 3.5 0.00 0.05 0.04 63 1003.7
20260507180254 57 136 0.0 1.7 0.00 0.05 0.04 67 1003.7
20260507175252 56 103 0.9 2.6 0.00 0.05 0.04 60 1004.1
20260507174752 57 243 0.9 3.5 0.00 0.05 0.04 62 1004.0
20260507174250 57 275 0.0 3.5 0.00 0.05 0.04 59 1003.8
20260507173248 56 224 0.0 2.6 0.00 0.05 0.04 61 1003.9
20260507172750 56 255 0.9 5.2 0.00 0.05 0.04 62 1004.1
20260507172249 56 300 0.0 5.2 0.00 0.05 0.04 61 1004.0
20260507171749 56 56 0.0 1.7 0.00 0.05 0.04 67 1004.3
20260507171250 56 313 0.9 3.5 0.00 0.05 0.04 68 1004.3
20260507170748 56 278 0.9 3.5 0.00 0.05 0.04 65 1004.2
20260507165748 56 214 0.0 1.7 0.00 0.05 0.04 67 1004.2
20260507165248 56 282 0.0 0.9 0.00 0.05 0.04 71 1004.5
20260507164249 55 282 0.0 0.9 0.00 0.05 0.04 72 1004.8
20260507163748 55 282 0.0 0.9 0.00 0.05 0.04 67 1005.2
20260507163247 55 282 0.0 0.9 0.00 0.05 0.04 67 1005.1
20260507162743 55 289 0.0 3.5 0.00 0.05 0.04 65 1004.9
20260507161744 56 300 0.9 2.6 0.00 0.05 0.04 65 1005.0
20260507160743 56 48 0.9 7.8 0.00 0.05 0.04 67 1004.7
20260507160239 56 317 0.0 7.8 0.00 0.05 0.04 69 1004.9
20260507155738 56 330 0.0 1.7 0.00 0.05 0.04 70 1005.2
20260507155240 56 298 0.0 1.7 0.00 0.05 0.04 70 1005.1
20260507154738 57 278 0.0 3.5 0.00 0.05 0.04 69 1005.1
20260507154239 57 341 0.9 3.5 0.00 0.05 0.04 67 1005.1
20260507153738 56 329 0.9 3.5 0.00 0.05 0.04 69 1005.1
20260507152739 57 291 0.0 2.6 0.00 0.05 0.04 64 1005.0
20260507152239 57 43 0.0 2.6 0.00 0.05 0.04 69 1005.2
20260507151736 57 307 0.9 3.5 0.00 0.05 0.04 67 1005.1
20260507151235 57 0 0.9 3.5 0.00 0.05 0.04 66 1005.1
20260507150735 57 194 0.9 2.6 0.00 0.05 0.04 65 1005.1
20260507150236 57 70 0.9 4.3 0.00 0.05 0.04 70 1004.9
20260507145734 57 350 0.9 4.3 0.00 0.06 0.04 67 1004.8
20260507144734 56 295 0.9 4.3 0.00 0.07 0.04 71 1005.3
20260507144235 56 336 0.9 5.2 0.00 0.07 0.04 73 1005.5
20260507143735 56 314 0.9 5.2 0.00 0.07 0.04 70 1005.6
20260507143231 56 290 0.9 4.3 0.00 0.07 0.04 70 1005.7
20260507142731 57 305 1.7 7.0 0.00 0.08 0.04 72 1005.5
20260507142230 57 10 1.7 7.8 0.00 0.10 0.04 72 1005.6
20260507141730 57 18 1.7 7.8 0.00 0.10 0.04 71 1005.7
20260507141230 56 0 0.9 4.3 0.00 0.10 0.04 71 1005.5
20260507140731 56 45 0.9 3.5 0.00 0.10 0.04 72 1005.7
20260507140230 56 132 0.9 7.0 0.00 0.10 0.04 73 1005.8
20260507135731 56 33 1.7 7.0 0.00 0.10 0.04 72 1005.8
20260507135230 56 10 1.7 4.3 0.00 0.11 0.04 71 1005.8
20260507134732 57 345 1.7 7.0 0.00 0.11 0.04 72 1005.9
20260507133729 57 297 1.7 4.3 0.00 0.11 0.04 72 1005.7
20260507133231 57 42 1.7 7.8 0.00 0.11 0.04 73 1005.5
20260507132231 57 102 0.9 5.2 0.00 0.11 0.04 73 1005.5
20260507131730 57 332 1.7 5.2 0.00 0.12 0.04 75 1005.5
20260507130229 56 88 1.7 7.8 0.00 0.12 0.04 77 1005.5
20260507125729 56 343 0.9 4.3 0.00 0.12 0.04 77 1005.6
20260507125230 57 338 0.9 1.7 0.00 0.12 0.04 80 1005.6
20260507123227 57 87 0.9 3.5 0.00 0.12 0.04 81 1005.3
20260507122729 57 281 0.9 2.6 0.00 0.12 0.04 82 1005.4
20260507122224 56 328 0.9 2.6 0.00 0.12 0.04 82 1005.4
20260507121725 56 276 0.9 3.5 0.00 0.12 0.04 83 1005.2
20260507121222 56 291 0.9 3.5 0.00 0.12 0.04 82 1005.1
20260507120220 56 330 0.0 2.6 0.00 0.12 0.04 83 1004.7
20260507115218 56 252 0.9 3.5 0.00 0.12 0.04 85 1004.9
20260507114718 55 341 0.9 3.5 0.00 0.12 0.04 84 1005.0
20260507113715 55 232 0.0 3.5 0.00 0.12 0.04 85 1005.0
20260507113215 55 346 0.0 3.5 0.00 0.12 0.04 85 1005.0
20260507112209 55 254 0.9 2.6 0.00 0.12 0.04 85 1004.6
20260507111707 55 347 0.9 2.6 0.00 0.12 0.04 85 1004.8
20260507111203 55 318 0.9 2.6 0.00 0.12 0.04 85 1004.7
20260507110703 55 320 0.9 2.6 0.00 0.12 0.04 85 1004.8
20260507110201 55 0 0.9 4.3 0.00 0.12 0.04 86 1004.9
20260507105700 55 301 0.9 4.3 0.00 0.12 0.04 86 1004.8
20260507105158 55 299 0.0 1.7 0.00 0.12 0.04 87 1004.7
20260507104659 55 10 0.0 1.7 0.00 0.12 0.04 87 1004.7
20260507104159 54 309 0.0 1.7 0.00 0.12 0.04 87 1004.6
20260507103656 54 299 0.0 1.7 0.00 0.12 0.04 87 1004.7
20260507103149 54 320 0.0 0.9 0.00 0.12 0.04 87 1004.5
20260507102649 54 320 0.0 4.3 0.00 0.12 0.04 87 1004.5
20260507102150 54 322 0.0 4.3 0.00 0.12 0.04 87 1004.2
20260507101651 54 343 0.0 1.7 0.00 0.12 0.04 87 1004.3
20260507101149 54 303 0.0 1.7 0.00 0.12 0.04 88 1004.2
20260507100649 54 14 0.0 1.7 0.00 0.12 0.04 87 1004.2
20260507100149 54 324 0.0 2.6 0.00 0.12 0.04 87 1004.3
20260507095150 54 342 0.0 1.7 0.00 0.12 0.04 87 1004.4
20260507094646 54 320 0.0 1.7 0.00 0.12 0.04 87 1004.3
20260507094145 54 329 0.0 0.9 0.00 0.12 0.04 88 1004.3
20260507093645 54 323 0.0 1.7 0.00 0.12 0.04 87 1004.2
20260507093146 54 324 0.0 2.6 0.00 0.12 0.04 87 1004.2
20260507092646 54 308 0.0 2.6 0.00 0.12 0.04 87 1004.2
20260507092146 54 97 0.0 0.9 0.01 0.12 0.04 88 1004.2
20260507091645 54 97 0.0 0.9 0.01 0.12 0.04 88 1004.4
20260507091145 54 324 0.0 2.6 0.01 0.12 0.04 88 1004.1
20260507090145 54 314 0.0 2.6 0.01 0.12 0.04 89 1003.8
20260507085145 54 320 0.0 0.9 0.01 0.12 0.04 89 1003.7
20260507084144 54 307 0.0 1.7 0.01 0.12 0.04 89 1003.9
20260507083647 54 302 0.0 1.7 0.01 0.12 0.04 88 1003.9
20260507083145 55 277 0.0 1.7 0.01 0.12 0.04 88 1003.9
20260507082646 55 277 0.0 1.7 0.01 0.12 0.04 88 1004.0
20260507082145 55 278 0.0 1.7 0.00 0.11 0.03 87 1004.2
20260507081645 55 353 0.0 2.6 0.00 0.11 0.03 86 1004.5
20260507080145 56 145 1.7 7.0 0.00 0.11 0.03 85 1003.6
20260507075647 56 293 1.7 7.0 0.00 0.11 0.03 87 1003.6
20260507075146 56 297 1.7 7.0 0.00 0.11 0.03 88 1003.6
20260507074647 56 0 0.9 3.5 0.00 0.11 0.03 89 1003.5
20260507074146 56 342 0.9 3.5 0.00 0.11 0.03 89 1003.5
20260507073642 56 342 0.0 3.5 0.00 0.11 0.03 89 1003.5
20260507073142 56 226 0.9 3.5 0.00 0.11 0.03 89 1003.3
20260507072639 56 222 0.9 3.5 0.00 0.11 0.03 90 1003.1
20260507072139 56 0 0.9 3.5 0.00 0.11 0.03 90 1003.2
20260507071638 56 319 0.9 3.5 0.00 0.11 0.03 90 1003.3
20260507071138 56 318 0.9 2.6 0.00 0.11 0.03 89 1003.4
20260507070633 56 355 0.9 2.6 0.00 0.11 0.03 89 1003.3
20260507070136 56 335 0.9 5.2 0.00 0.11 0.03 89 1003.5
20260507065632 56 333 0.9 5.2 0.00 0.11 0.03 90 1003.3
20260507064632 57 304 0.9 4.3 0.01 0.11 0.03 90 1003.2
20260507064132 57 74 1.7 3.5 0.01 0.11 0.03 90 1003.4
20260507063126 57 0 1.7 4.3 0.01 0.11 0.03 91 1003.7
20260507061627 58 320 1.7 5.2 0.02 0.11 0.03 91 1003.1
20260507061126 58 0 0.9 3.5 0.02 0.11 0.03 91 1003.0
20260507060625 58 339 0.9 2.6 0.02 0.11 0.03 90 1002.6
20260507060124 58 16 0.9 2.6 0.02 0.11 0.03 90 1002.1
20260507055623 58 330 0.0 2.6 0.01 0.10 0.03 90 1002.1
20260507055026 58 279 0.0 1.7 0.01 0.10 0.02 90 1001.9
20260507054527 58 170 0.9 4.3 0.01 0.10 0.02 90 1002.0
20260507054027 58 229 0.9 4.3 0.02 0.10 0.02 89 1002.1
20260507053528 58 84 0.9 2.6 0.02 0.10 0.02 89 1002.3
20260507053025 59 325 0.9 2.6 0.02 0.10 0.02 89 1002.9
20260507052525 59 301 0.9 5.2 0.02 0.10 0.02 89 1003.2
20260507051523 60 0 0.9 4.3 0.01 0.09 0.01 88 1003.4
20260507051023 60 88 0.9 7.0 0.01 0.09 0.01 88 1003.4
20260507050020 61 272 1.7 3.5 0.01 0.09 0.01 88 1003.3
20260507045020 63 305 0.9 4.3 0.01 0.09 0.01 88 1003.1
20260507044521 63 56 1.7 5.2 0.01 0.09 0.01 88 1003.0
20260507044020 64 79 1.7 5.2 0.00 0.08 0.00 88 1002.9
20260507043520 64 60 0.9 4.3 0.00 0.08 0.00 89 1003.2
20260507043016 65 343 0.0 1.7 0.00 0.08 0.00 89 1003.0
20260507042515 65 214 0.0 1.7 0.00 0.08 0.00 89 1002.7
20260507042016 65 214 0.0 1.7 0.00 0.08 0.00 88 1002.6
20260507041516 65 214 0.0 0.9 0.00 0.08 0.00 88 1002.3
20260507041014 65 214 0.0 0.9 0.00 0.08 0.00 87 1002.4
20260507040515 65 214 0.0 0.9 0.00 0.08 0.00 87 1002.7
20260507040015 65 214 0.0 0.0 0.00 0.08 0.00 87 1002.6
20260507035514 65 214 0.0 0.0 0.00 0.08 0.08 87 1002.5
20260507035016 65 214 0.0 0.0 0.00 0.08 0.08 87 1002.4
20260507034511 65 214 0.0 0.0 0.00 0.08 0.08 86 1002.4
20260507034010 65 214 0.0 0.0 0.00 0.08 0.08 86 1002.3
20260507033510 65 214 0.0 0.0 0.00 0.08 0.08 85 1002.3
20260507033011 65 214 0.0 0.0 0.00 0.08 0.08 85 1002.1
20260507032511 66 214 0.0 0.9 0.00 0.08 0.08 85 1002.0
20260507032010 66 214 0.0 0.9 0.00 0.08 0.08 84 1002.0
20260507031510 66 214 0.0 0.9 0.00 0.08 0.08 84 1002.3
20260507031010 66 214 0.0 0.0 0.00 0.08 0.08 84 1002.6
20260507030511 66 214 0.0 0.0 0.00 0.08 0.08 84 1002.5
20260507030007 66 214 0.0 0.0 0.00 0.08 0.08 84 1002.3
20260507025506 66 214 0.0 0.0 0.00 0.08 0.08 85 1002.1